This demonstration page uses our WeatherBlox Daily Observations layout. Learn more.

Left ArrowRight Arrow

39.01783, -85.05884

Hourly Observations for October 15, 2019

Temp ( °F °C ) Dew Point ( °F °C ) Humidity (%) Winds ( mph kmh ) Pressure ( in mb ) Visibility ( mi km ) Precip ( " mm )
12:52 am 00:52 Clear 49 9.4 36 2.2 61 61 Calm 30.09 1019 10 16 0.00 0.00
1:52 am 01:52 Clear 48 8.9 35 1.7 61 61 Calm 30.09 1019 10 16 0.00 0.00
2:52 am 02:52 Clear 49 9.4 37 2.8 64 64 E 3 6 30.09 1019 10 16 0.00 0.00
3:52 am 03:52 Clear 49 9.4 38 3.3 66 66 E 3 6 30.07 1018 10 16 0.00 0.00
4:52 am 04:52 Clear 49 9.4 37 2.8 64 64 Calm 30.07 1018 10 16 0.00 0.00
5:52 am 05:52 Clear 48 8.9 36 2.2 63 63 SE 6 9 30.08 1019 10 16 0.00 0.00
6:52 am 06:52 Clear 46 7.8 35 1.7 66 66 SE 5 7 30.08 1019 10 16 0.00 0.00
7:52 am 07:52 Mostly Sunny 44 6.7 36 2.2 73 73 ESE 7 11 30.07 1018 10 16 0.00 0.00
8:52 am 08:52 Sunny 49 9.4 39 3.9 69 69 ESE 5 7 30.06 1018 10 16 0.00 0.00
9:52 am 09:52 Sunny 57 13.9 39 3.9 51 51 SE 6 9 30.06 1018 10 16 0.00 0.00
10:52 am 10:52 Mostly Sunny 64 17.8 36 2.2 35 35 SSE 9 15 30.05 1018 10 16 0.00 0.00
11:52 am 11:52 Mostly Sunny 68 20 40 4.4 36 36 S 12 19 30.01 1016 10 16 0.00 0.00
12:52 pm 12:52 Mostly Sunny 72 22.2 42 5.6 34 34 SSE 14 22 29.96 1015 10 16 0.00 0.00
1:52 pm 13:52 Partly Cloudy 74 23.3 41 5 31 31 S 15 24 29.93 1013 10 16 0.00 0.00
2:52 pm 14:52 Partly Cloudy 74 23.3 45 7.2 36 36 S 17 28 29.89 1012 10 16 0.00 0.00
3:52 pm 15:52 Mostly Sunny 75 23.9 49 9.4 40 40 S 13 20 29.86 1011 10 16 0.00 0.00
4:52 pm 16:52 Mostly Sunny 75 23.9 51 10.6 43 43 SSW 14 22 29.84 1011 10 16 0.00 0.00
5:52 pm 17:52 Mostly Sunny 73 22.8 52 11.1 48 48 SSW 14 22 29.84 1010 10 16 0.00 0.00
6:52 pm 18:52 Mostly Sunny 69 20.6 53 11.7 57 57 SSW 8 13 29.83 1010 10 16 0.00 0.00
7:52 pm 19:52 Mostly Cloudy 68 20 54 12.2 61 61 S 10 17 29.83 1010 10 16 0.00 0.00
8:52 pm 20:52 Partly Cloudy 66 18.9 55 12.8 68 68 SSW 7 11 29.81 1010 10 16 0.00 0.00
9:52 pm 21:52 Partly Cloudy 65 18.3 55 12.8 70 70 S 9 15 29.80 1009 10 16 0.00 0.00
10:52 pm 22:52 Cloudy 66 18.9 56 13.3 70 70 SSW 12 19 29.77 1008 10 16 0.00 0.00
11:24 pm 23:24 Cloudy with Thunderstorms 67 19.4 56 13.3 68 68 SSW 9 15 29.77 1008 10 16 0.00 0.00
11:52 pm 23:52 Cloudy with Thunderstorms 64 17.8 57 13.9 78 78 SW 10 17 29.77 1008 10 16 0.01 0.25

Powered by AerisWeather